GFSGL_850_temp_021.txt.gz
Temp
0 -0 -1 -1 -1 -1 -1 -1 -1 -1 -1 -1 -1 -1 -1 -1 -1 -1 -1 -1 -1 -1 -1 -1 -1 -1 -1 -1 -1 -1 -2 -2 -3 -2 -1 -0 -0 -0 0 2 3 4 5
-0 -0 -1 -1 -1 -1 -1 -2 -2 -2 -2 -2 -2 -2 -2 -2 -2 -2 -2 -2 -2 -1 -1 -1 -1 -1 -1 -2 -2 -2 -2 -2 -3 -3 -1 -1 -1 -0 -0 -0 1 2 3
-1 -1 -1 -1 -1 -1 -1 -2 -2 -2 -2 -2 -2 -2 -2 -2 -2 -2 -3 -3 -3 -3 -3 -3 -2 -2 -3 -3 -3 -3 -3 -2 -2 -3 -2 -1 -1 -1 -1 -0 -1 0 2
-1 -1 -1 -1 -2 -2 -2 -2 -3 -3 -3 -3 -3 -3 -3 -3 -3 -4 -5 -5 -6 -5 -5 -5 -4 -4 -5 -5 -6 -5 -4 -4 -4 -4 -4 -3 -2 -1 -1 -2 -1 -1 -1
-1 -1 -2 -2 -2 -3 -3 -3 -3 -3 -3 -3 -3 -3 -3 -4 -5 -6 -6 -6 -6 -6 -6 -7 -7 -7 -7 -8 -10 -9 -9 -8 -7 -7 -6 -6 -4 -4 -2 -1 -2 -2 -1
-2 -2 -2 -3 -3 -3 -4 -4 -4 -4 -4 -4 -4 -4 -4 -5 -6 -7 -7 -8 -8 -8 -8 -9 -12 -12 -12 -13 -12 -12 -11 -11 -10 -9 -9 -8 -7 -6 -5 -4 -3 -3 -4
-2 -2 -3 -3 -4 -4 -4 -4 -5 -5 -4 -5 -5 -6 -6 -7 -7 -8 -9 -10 -11 -12 -13 -14 -14 -15 -15 -15 -15 -15 -14 -13 -12 -10 -9 -9 -8 -8 -7 -6 -5 -4 -2
-2 -3 -3 -4 -4 -4 -5 -5 -5 -5 -5 -6 -6 -7 -7 -7 -8 -10 -11 -13 -14 -14 -15 -16 -18 -18 -17 -18 -17 -17 -16 -14 -14 -14 -12 -10 -10 -9 -8 -7 -7 -6 -5
-3 -3 -4 -4 -5 -5 -5 -5 -6 -6 -6 -7 -7 -8 -8 -8 -10 -11 -14 -15 -15 -16 -18 -19 -19 -18 -18 -18 -16 -16 -16 -16 -16 -15 -14 -13 -12 -10 -9 -8 -7 -7 -7
-3 -4 -5 -5 -6 -6 -6 -6 -6 -7 -7 -8 -8 -9 -10 -10 -12 -14 -16 -18 -19 -19 -19 -18 -18 -18 -18 -17 -16 -16 -16 -16 -16 -16 -15 -15 -14 -12 -11 -9 -8 -7 -7
-4 -5 -6 -6 -6 -6 -6 -7 -7 -8 -8 -9 -9 -10 -11 -12 -13 -15 -16 -19 -19 -19 -18 -18 -18 -18 -17 -17 -16 -16 -16 -16 -15 -15 -15 -15 -14 -13 -12 -11 -9 -8 -7
-5 -6 -6 -7 -7 -7 -7 -8 -9 -9 -9 -10 -10 -10 -11 -13 -15 -15 -18 -19 -18 -18 -18 -17 -17 -17 -17 -16 -16 -15 -15 -14 -14 -15 -15 -15 -15 -13 -12 -12 -10 -9 -8
-6 -7 -7 -7 -8 -8 -8 -9 -9 -10 -10 -11 -12 -12 -12 -14 -16 -17 -20 -19 -18 -17 -17 -17 -16 -15 -15 -15 -15 -15 -15 -15 -15 -16 -16 -16 -16 -16 -15 -12 -10 -9 -9
-7 -8 -8 -8 -9 -9 -10 -10 -10 -11 -11 -12 -13 -14 -16 -19 -19 -19 -18 -17 -17 -16 -17 -16 -16 -15 -15 -15 -15 -15 -15 -15 -15 -16 -16 -16 -17 -17 -15 -13 -11 -9 -9
-8 -8 -9 -9 -10 -10 -11 -11 -11 -12 -13 -14 -17 -19 -19 -19 -19 -18 -17 -17 -17 -16 -16 -16 -16 -16 -16 -16 -17 -17 -16 -16 -15 -15 -17 -17 -17 -17 -16 -13 -11 -10 -9
-9 -10 -10 -10 -11 -11 -12 -11 -12 -13 -13 -14 -17 -19 -19 -19 -19 -18 -18 -17 -17 -17 -18 -17 -16 -16 -16 -16 -17 -17 -17 -16 -16 -17 -17 -17 -17 -16 -15 -13 -11 -9 -8
-10 -10 -10 -11 -12 -12 -13 -13 -13 -12 -13 -14 -16 -16 -19 -20 -20 -19 -18 -19 -19 -18 -17 -17 -17 -17 -16 -16 -16 -17 -17 -16 -16 -16 -17 -16 -15 -15 -13 -12 -11 -8 -8
-11 -11 -11 -12 -13 -13 -14 -14 -14 -14 -14 -13 -14 -16 -17 -18 -21 -20 -20 -19 -16 -16 -18 -18 -18 -18 -17 -16 -15 -15 -15 -15 -15 -15 -15 -14 -14 -12 -10 -10 -10 -8 -8
-12 -12 -13 -14 -14 -15 -15 -15 -15 -16 -16 -16 -15 -15 -16 -16 -18 -18 -18 -18 -18 -18 -18 -18 -19 -18 -18 -17 -16 -15 -14 -14 -14 -13 -13 -13 -12 -11 -10 -9 -9 -9 -8
-13 -13 -14 -15 -16 -16 -16 -16 -16 -16 -17 -17 -18 -18 -17 -16 -18 -17 -18 -18 -19 -19 -19 -19 -19 -19 -18 -18 -17 -16 -15 -14 -13 -13 -12 -12 -11 -11 -11 -10 -9 -9 -9
-14 -15 -15 -16 -17 -17 -17 -17 -17 -17 -18 -18 -18 -19 -20 -20 -19 -18 -18 -19 -19 -19 -19 -19 -19 -19 -19 -18 -18 -17 -16 -15 -14 -14 -13 -13 -12 -11 -11 -10 -10 -10 -9
-16 -16 -17 -17 -18 -18 -18 -18 -18 -18 -18 -18 -19 -19 -19 -19 -19 -19 -19 -19 -19 -19 -20 -19 -19 -19 -19 -19 -19 -18 -17 -16 -15 -14 -14 -13 -13 -12 -12 -11 -11 -10 -10
-17 -18 -18 -18 -18 -18 -18 -19 -19 -19 -19 -19 -19 -19 -19 -19 -19 -20 -19 -19 -19 -19 -19 -19 -19 -19 -19 -19 -19 -19 -19 -17 -17 -16 -15 -14 -14 -13 -13 -13 -12 -12 -12
-19 -19 -19 -19 -19 -19 -19 -19 -19 -19 -19 -20 -20 -19 -20 -20 -20 -20 -19 -19 -19 -19 -19 -19 -19 -19 -19 -19 -19 -19 -19 -18 -17 -17 -16 -16 -15 -15 -14 -14 -14 -13 -13
-21 -21 -20 -20 -20 -20 -20 -20 -20 -20 -20 -20 -20 -20 -20 -20 -20 -20 -19 -19 -19 -19 -19 -19 -19 -19 -19 -19 -18 -19 -18 -18 -18 -17 -17 -16 -16 -16 -16 -15 -15 -15 -15
-22 -22 -21 -21 -21 -20 -20 -20 -20 -20 -20 -20 -20 -20 -20 -20 -20 -20 -19 -19 -19 -19 -19 -19 -19 -19 -19 -19 -18 -19 -18 -19 -18 -18 -18 -17 -17 -16 -16 -16 -16 -16 -16

GFSGL_850_temp_024.txt.gz
Temp
2 1 0 0 -0 -0 -1 -1 -2 -2 -2 -2 -2 -2 -2 -2 -2 -1 -1 -1 -1 -1 -1 -1 -1 -2 -2 -2 -2 -2 -3 -3 -4 -3 -1 0 0 0 1 1 1 1 2
0 -0 -0 -1 -1 -2 -2 -2 -2 -2 -2 -3 -2 -2 -2 -2 -2 -2 -2 -2 -2 -2 -2 -2 -3 -3 -3 -3 -3 -3 -3 -3 -4 -5 -4 -1 -1 -0 -0 -0 0 1 1
-0 -1 -1 -1 -2 -2 -2 -2 -2 -2 -2 -3 -3 -3 -3 -2 -2 -2 -2 -3 -3 -3 -4 -4 -4 -5 -5 -5 -5 -5 -5 -5 -5 -6 -7 -5 -3 -2 -1 -1 -0 -0 0
-1 -1 -1 -1 -2 -2 -2 -2 -3 -3 -3 -3 -3 -3 -3 -3 -3 -3 -4 -4 -5 -5 -5 -6 -7 -7 -8 -7 -7 -8 -9 -10 -10 -10 -10 -9 -8 -4 -3 -3 -2 -1 -0
-1 -1 -1 -2 -2 -2 -2 -3 -3 -3 -3 -3 -3 -3 -3 -4 -4 -5 -5 -6 -6 -6 -6 -7 -8 -10 -11 -12 -13 -12 -13 -13 -13 -12 -12 -11 -10 -9 -7 -6 -5 -4 -2
-1 -1 -2 -2 -2 -2 -3 -3 -3 -4 -4 -4 -4 -4 -4 -4 -5 -6 -7 -7 -7 -7 -7 -8 -10 -11 -12 -14 -16 -16 -15 -14 -13 -13 -12 -11 -11 -10 -9 -9 -8 -8 -6
-1 -1 -2 -2 -2 -3 -3 -4 -4 -4 -4 -5 -5 -5 -5 -5 -6 -7 -7 -7 -7 -8 -10 -11 -13 -14 -15 -15 -15 -17 -16 -16 -16 -15 -14 -14 -14 -13 -12 -10 -9 -8 -8
-1 -2 -2 -2 -3 -3 -4 -4 -4 -5 -5 -5 -5 -5 -6 -6 -7 -8 -8 -8 -9 -10 -12 -14 -15 -16 -17 -18 -18 -17 -17 -17 -16 -16 -16 -15 -15 -14 -14 -13 -11 -10 -9
-2 -2 -2 -3 -3 -4 -4 -4 -5 -5 -5 -6 -6 -6 -7 -7 -9 -9 -10 -10 -11 -12 -15 -16 -17 -17 -18 -18 -17 -16 -16 -16 -16 -16 -16 -15 -15 -14 -13 -13 -12 -12 -11
-2 -3 -4 -4 -4 -4 -5 -5 -6 -6 -6 -6 -6 -7 -8 -9 -10 -10 -11 -12 -14 -16 -17 -17 -17 -18 -17 -16 -16 -16 -16 -16 -15 -15 -15 -14 -14 -14 -14 -14 -14 -14 -13
-3 -4 -4 -4 -4 -5 -5 -6 -6 -6 -7 -7 -7 -8 -9 -10 -10 -11 -12 -16 -18 -18 -17 -17 -17 -17 -17 -16 -15 -15 -15 -15 -14 -14 -14 -15 -15 -15 -15 -15 -15 -15 -14
-4 -4 -5 -5 -5 -6 -6 -7 -7 -7 -8 -8 -8 -9 -10 -11 -11 -11 -13 -18 -17 -17 -17 -17 -17 -17 -16 -15 -14 -14 -14 -13 -14 -14 -14 -15 -15 -15 -15 -14 -15 -15 -14
-5 -5 -6 -6 -7 -7 -8 -8 -8 -9 -9 -9 -10 -10 -11 -12 -11 -12 -15 -17 -18 -17 -17 -16 -16 -15 -15 -15 -15 -16 -15 -15 -15 -15 -15 -15 -15 -16 -16 -16 -16 -16 -16
-6 -6 -7 -7 -8 -8 -9 -9 -9 -10 -11 -11 -11 -12 -13 -13 -15 -15 -16 -17 -17 -17 -16 -16 -16 -16 -16 -16 -15 -14 -14 -15 -16 -17 -17 -17 -17 -16 -16 -16 -17 -17 -17
-7 -7 -7 -8 -9 -9 -9 -10 -10 -11 -12 -12 -13 -15 -17 -17 -17 -18 -17 -17 -17 -16 -17 -17 -16 -16 -15 -15 -14 -14 -14 -14 -14 -15 -16 -16 -16 -16 -17 -17 -17 -17 -17
-7 -8 -8 -9 -10 -10 -10 -10 -12 -13 -13 -13 -14 -18 -18 -19 -19 -18 -18 -17 -18 -18 -17 -17 -17 -17 -17 -17 -16 -16 -15 -15 -15 -16 -16 -16 -16 -15 -15 -15 -16 -17 -17
-9 -9 -10 -11 -11 -11 -12 -12 -11 -12 -14 -14 -15 -16 -17 -19 -19 -19 -19 -19 -17 -17 -18 -17 -18 -18 -18 -18 -18 -18 -17 -16 -16 -16 -16 -15 -15 -14 -14 -15 -15 -15 -15
-10 -11 -12 -12 -12 -12 -13 -13 -14 -14 -13 -14 -15 -16 -17 -17 -18 -20 -20 -17 -16 -17 -18 -18 -19 -19 -19 -19 -18 -18 -17 -17 -16 -16 -16 -15 -15 -15 -14 -14 -13 -11 -11
-11 -12 -13 -13 -13 -14 -14 -15 -15 -15 -15 -16 -15 -16 -17 -17 -17 -18 -19 -18 -18 -18 -18 -18 -19 -19 -19 -19 -19 -19 -19 -18 -17 -17 -16 -15 -15 -14 -13 -13 -12 -11 -10
-12 -13 -13 -14 -15 -15 -16 -16 -16 -17 -17 -17 -17 -17 -16 -16 -16 -17 -18 -18 -18 -19 -19 -19 -19 -19 -19 -19 -19 -19 -19 -18 -18 -17 -16 -15 -15 -14 -13 -12 -11 -11 -10
-14 -14 -14 -15 -15 -16 -17 -17 -18 -18 -17 -17 -18 -18 -18 -19 -18 -18 -18 -18 -19 -19 -19 -19 -19 -19 -19 -19 -19 -19 -19 -19 -19 -18 -17 -16 -15 -14 -14 -13 -12 -11 -11
-15 -16 -17 -17 -17 -18 -18 -18 -18 -18 -18 -18 -18 -19 -19 -19 -19 -19 -18 -18 -19 -19 -20 -19 -19 -19 -19 -19 -19 -19 -19 -19 -19 -19 -18 -17 -16 -15 -14 -13 -12 -11 -11
-16 -17 -18 -18 -19 -19 -19 -19 -19 -19 -19 -19 -19 -19 -19 -19 -19 -19 -19 -19 -19 -19 -19 -19 -19 -19 -19 -19 -19 -19 -19 -19 -19 -19 -18 -17 -16 -16 -15 -14 -14 -13 -13
-19 -20 -20 -20 -20 -20 -20 -20 -20 -20 -20 -20 -20 -20 -20 -20 -20 -20 -20 -19 -19 -19 -19 -19 -19 -19 -19 -19 -19 -19 -19 -19 -19 -18 -18 -18 -17 -17 -16 -15 -15 -14 -14
-21 -22 -22 -22 -22 -22 -21 -21 -21 -21 -20 -20 -20 -20 -20 -20 -20 -20 -20 -20 -20 -19 -19 -19 -19 -19 -19 -19 -19 -19 -19 -19 -19 -18 -18 -18 -17 -17 -17 -16 -16 -15 -15
-24 -24 -23 -23 -23 -22 -22 -22 -21 -21 -21 -20 -20 -20 -20 -20 -20 -20 -20 -20 -20 -20 -19 -20 -19 -19 -19 -19 -19 -19 -19 -19 -19 -18 -18 -18 -18 -18 -18 -17 -17 -17 -16

GFSGL_850_temp_030.txt.gz
Temp
4 3 3 3 2 2 2 1 1 0 -1 -1 -1 -2 -2 -2 -2 -2 -2 -2 -2 -2 -2 -2 -2 -3 -3 -3 -4 -5 -5 -8 -9 -5 -7 -7 -3 -2 -2 -3 -3 -2 -1
3 2 2 2 1 1 0 -0 -1 -1 -2 -2 -2 -2 -3 -3 -3 -3 -3 -3 -3 -3 -3 -3 -3 -3 -4 -5 -5 -5 -6 -8 -10 -9 -7 -10 -10 -7 -3 -2 -5 -6 -4
2 2 1 1 0 0 -0 -1 -1 -2 -2 -2 -3 -3 -3 -3 -3 -3 -3 -3 -3 -4 -4 -4 -4 -5 -5 -6 -6 -7 -8 -9 -11 -12 -9 -11 -12 -11 -11 -9 -5 -5 -7
1 1 1 0 -0 -1 -1 -1 -2 -2 -3 -3 -3 -3 -3 -4 -4 -4 -4 -4 -4 -4 -5 -5 -5 -6 -6 -7 -8 -8 -10 -12 -13 -13 -13 -13 -13 -12 -12 -12 -11 -10 -8
1 0 0 -0 -1 -1 -1 -2 -3 -3 -3 -3 -3 -4 -4 -4 -4 -5 -5 -5 -5 -5 -5 -5 -6 -7 -7 -8 -9 -10 -13 -15 -15 -15 -15 -14 -13 -13 -13 -13 -13 -12 -9
0 0 -0 -1 -1 -1 -2 -3 -3 -3 -4 -4 -4 -4 -4 -5 -5 -5 -5 -5 -5 -6 -6 -6 -7 -8 -9 -10 -10 -12 -16 -16 -16 -15 -15 -15 -14 -14 -14 -14 -14 -14 -14
0 -0 -1 -1 -1 -2 -3 -3 -3 -4 -4 -5 -5 -5 -5 -5 -5 -5 -6 -6 -6 -6 -7 -7 -8 -9 -10 -11 -12 -15 -16 -16 -16 -15 -15 -15 -15 -15 -14 -14 -14 -14 -14
-0 -1 -1 -1 -2 -2 -3 -3 -4 -4 -5 -5 -5 -6 -5 -6 -6 -6 -6 -6 -7 -7 -8 -8 -9 -9 -11 -13 -15 -15 -16 -16 -15 -15 -15 -15 -15 -15 -14 -14 -14 -14 -13
-0 -1 -1 -1 -2 -2 -3 -4 -5 -5 -5 -6 -6 -6 -6 -6 -7 -7 -7 -7 -7 -8 -8 -9 -10 -11 -13 -16 -15 -15 -15 -14 -14 -13 -14 -14 -14 -13 -13 -13 -13 -13 -13
-0 -1 -1 -2 -2 -3 -4 -5 -5 -6 -6 -6 -6 -6 -6 -7 -7 -8 -8 -8 -9 -9 -9 -10 -12 -16 -16 -15 -15 -14 -14 -14 -14 -14 -13 -14 -14 -14 -14 -14 -14 -14 -14
-1 -1 -2 -2 -3 -3 -4 -5 -6 -6 -6 -6 -6 -7 -7 -8 -8 -8 -9 -9 -10 -10 -12 -13 -15 -16 -15 -15 -15 -14 -15 -15 -15 -15 -15 -15 -14 -13 -13 -14 -14 -14 -14
-1 -2 -2 -2 -3 -3 -5 -6 -6 -7 -7 -7 -7 -7 -8 -8 -9 -9 -10 -11 -11 -14 -15 -16 -16 -16 -16 -16 -15 -15 -17 -17 -17 -16 -15 -14 -14 -14 -13 -14 -15 -15 -15
-2 -2 -2 -3 -3 -4 -5 -6 -6 -7 -7 -7 -8 -8 -8 -9 -9 -10 -11 -12 -13 -14 -16 -16 -16 -16 -15 -15 -15 -15 -15 -16 -17 -18 -18 -17 -17 -15 -14 -14 -14 -14 -14
-2 -2 -3 -3 -4 -5 -6 -6 -7 -7 -7 -8 -8 -9 -9 -9 -10 -10 -12 -13 -15 -16 -16 -16 -16 -16 -16 -16 -15 -15 -16 -17 -17 -18 -20 -18 -16 -15 -15 -15 -16 -15 -16
-2 -3 -3 -4 -5 -6 -6 -7 -7 -8 -8 -9 -9 -10 -10 -10 -10 -11 -15 -16 -16 -16 -17 -16 -16 -16 -16 -16 -16 -16 -17 -17 -18 -20 -20 -18 -17 -17 -16 -16 -17 -16 -16
-3 -3 -4 -4 -6 -7 -7 -8 -9 -9 -9 -10 -10 -11 -11 -11 -13 -14 -17 -17 -17 -17 -17 -17 -17 -17 -17 -17 -17 -17 -17 -18 -19 -19 -18 -19 -19 -18 -18 -16 -17 -17 -16
-3 -4 -5 -6 -7 -8 -9 -9 -9 -10 -11 -11 -12 -12 -12 -13 -13 -14 -18 -18 -17 -17 -17 -17 -17 -18 -18 -18 -18 -18 -18 -18 -18 -18 -19 -19 -19 -20 -19 -18 -17 -17 -16
-5 -6 -7 -8 -8 -9 -10 -10 -10 -11 -11 -12 -13 -14 -13 -14 -15 -16 -19 -19 -17 -17 -18 -18 -18 -18 -18 -18 -18 -18 -18 -18 -18 -18 -19 -19 -20 -20 -20 -19 -18 -18 -17
-7 -8 -9 -9 -10 -11 -11 -12 -12 -12 -13 -13 -14 -15 -15 -15 -16 -16 -17 -17 -17 -17 -18 -18 -18 -18 -18 -19 -19 -19 -19 -18 -19 -19 -19 -19 -20 -20 -20 -19 -18 -17 -17
-9 -10 -11 -11 -12 -12 -13 -13 -14 -15 -15 -15 -15 -16 -16 -17 -17 -17 -18 -18 -18 -18 -18 -18 -19 -19 -19 -19 -19 -19 -18 -18 -19 -19 -19 -19 -19 -20 -19 -19 -18 -18 -17
-11 -12 -12 -13 -13 -14 -15 -15 -16 -17 -17 -17 -17 -17 -18 -18 -18 -17 -18 -19 -19 -19 -19 -19 -19 -19 -19 -19 -19 -19 -19 -19 -19 -19 -19 -19 -19 -20 -19 -19 -18 -18 -17
-13 -14 -14 -15 -15 -16 -17 -17 -18 -18 -18 -18 -18 -18 -19 -19 -19 -19 -19 -20 -20 -19 -19 -19 -19 -19 -19 -19 -19 -19 -19 -19 -19 -20 -19 -19 -19 -19 -19 -19 -18 -18 -17
-14 -15 -16 -16 -17 -18 -19 -19 -20 -20 -20 -20 -20 -20 -20 -20 -20 -20 -20 -20 -20 -20 -20 -20 -20 -19 -20 -20 -20 -20 -20 -19 -20 -20 -19 -19 -19 -19 -19 -19 -18 -18 -18
-15 -16 -17 -18 -19 -20 -21 -22 -22 -22 -22 -22 -22 -21 -21 -21 -21 -20 -20 -20 -20 -20 -20 -20 -20 -20 -20 -20 -20 -20 -20 -20 -20 -20 -20 -20 -19 -19 -19 -18 -18 -18 -18
-17 -18 -18 -19 -20 -21 -22 -23 -23 -23 -23 -23 -23 -22 -22 -22 -21 -21 -21 -21 -20 -20 -20 -20 -20 -20 -20 -19 -19 -20 -20 -20 -20 -20 -20 -20 -19 -19 -19 -18 -18 -18 -18
-19 -19 -20 -21 -22 -23 -23 -23 -24 -24 -24 -23 -23 -23 -22 -22 -22 -21 -21 -21 -20 -20 -20 -20 -20 -20 -20 -20 -20 -20 -20 -20 -19 -20 -20 -20 -19 -19 -19 -19 -18 -18 -18

GFSGL_850_temp_033.txt.gz
Temp
5 5 4 4 3 3 3 2 2 1 1 1 -0 -1 -1 -1 -2 -2 -2 -2 -2 -2 -3 -3 -3 -3 -3 -3 -4 -4 -5 -6 -8 -4 -5 -5 -5 -5 -4 -3 -3 -4 -4
4 4 3 3 3 2 2 1 1 1 0 -1 -1 -1 -2 -2 -2 -3 -3 -3 -3 -3 -3 -3 -3 -4 -4 -4 -4 -5 -6 -7 -9 -8 -6 -7 -8 -7 -7 -6 -5 -5 -6
3 3 3 2 2 1 1 1 0 -0 -1 -1 -2 -2 -2 -3 -3 -3 -3 -3 -4 -4 -4 -4 -4 -4 -4 -5 -6 -6 -7 -8 -9 -10 -7 -10 -11 -11 -11 -10 -9 -8 -9
3 2 2 2 1 1 0 -0 -1 -1 -1 -2 -2 -2 -3 -3 -3 -4 -4 -4 -4 -4 -5 -5 -5 -5 -5 -6 -6 -7 -8 -9 -10 -11 -10 -11 -13 -13 -13 -13 -13 -12 -12
3 2 2 1 0 -0 -0 -1 -1 -2 -2 -2 -2 -3 -3 -4 -4 -4 -4 -5 -5 -5 -5 -5 -5 -6 -6 -6 -7 -8 -9 -10 -12 -13 -13 -14 -15 -14 -14 -14 -14 -14 -13
3 2 1 1 0 -0 -1 -1 -2 -2 -2 -3 -3 -4 -4 -4 -4 -5 -5 -5 -6 -6 -6 -6 -6 -6 -7 -7 -8 -9 -12 -14 -15 -15 -15 -15 -15 -14 -14 -14 -14 -14 -14
3 2 1 0 -0 -1 -1 -2 -2 -2 -3 -3 -4 -4 -4 -5 -5 -6 -6 -6 -6 -6 -6 -7 -7 -7 -8 -9 -10 -11 -13 -14 -15 -14 -14 -14 -14 -14 -14 -14 -14 -14 -14
2 1 0 -0 -1 -1 -2 -2 -2 -3 -3 -4 -4 -5 -5 -5 -6 -6 -6 -7 -7 -7 -7 -7 -7 -8 -9 -11 -12 -14 -14 -14 -14 -14 -14 -14 -14 -14 -13 -13 -13 -13 -13
2 1 0 -1 -1 -1 -2 -2 -2 -3 -4 -4 -5 -5 -6 -6 -6 -6 -7 -7 -8 -8 -8 -8 -9 -9 -11 -14 -14 -14 -14 -14 -14 -14 -14 -14 -14 -13 -13 -13 -13 -13 -14
2 1 0 -0 -1 -1 -2 -2 -3 -4 -4 -5 -5 -6 -6 -6 -6 -7 -7 -8 -8 -8 -8 -9 -10 -12 -14 -14 -14 -14 -14 -14 -15 -15 -15 -14 -14 -14 -15 -15 -15 -14 -14
1 0 -0 -1 -1 -2 -2 -3 -3 -4 -5 -5 -6 -6 -6 -7 -7 -7 -8 -9 -9 -9 -9 -10 -11 -13 -15 -14 -15 -15 -15 -16 -16 -15 -15 -14 -14 -14 -15 -15 -15 -15 -15
-0 -1 -1 -1 -1 -2 -2 -3 -3 -4 -5 -6 -6 -6 -7 -7 -7 -8 -9 -9 -10 -10 -10 -11 -13 -15 -15 -16 -15 -14 -15 -17 -15 -15 -15 -15 -16 -16 -16 -16 -16 -15 -15
-1 -1 -1 -1 -2 -2 -2 -3 -4 -5 -5 -6 -7 -7 -7 -8 -8 -8 -9 -10 -11 -12 -12 -13 -15 -15 -15 -15 -15 -15 -15 -15 -16 -16 -16 -16 -17 -17 -17 -16 -15 -15 -15
-1 -1 -1 -2 -2 -2 -3 -4 -4 -5 -6 -6 -7 -7 -8 -9 -9 -10 -10 -11 -12 -14 -15 -15 -15 -15 -15 -15 -15 -15 -15 -16 -17 -17 -18 -17 -17 -17 -17 -17 -18 -17 -17
-1 -2 -2 -2 -3 -3 -3 -4 -4 -5 -6 -7 -8 -8 -9 -10 -11 -11 -12 -14 -15 -15 -16 -15 -15 -15 -15 -16 -16 -16 -16 -16 -17 -18 -18 -18 -18 -18 -17 -18 -19 -19 -18
-2 -2 -3 -3 -3 -4 -4 -5 -6 -7 -7 -8 -9 -9 -10 -10 -11 -14 -15 -16 -16 -16 -16 -15 -16 -16 -16 -16 -16 -16 -17 -17 -18 -18 -18 -19 -19 -19 -19 -18 -19 -19 -19
-2 -3 -4 -5 -5 -6 -6 -7 -7 -8 -8 -9 -9 -10 -11 -12 -13 -16 -17 -17 -16 -16 -17 -16 -16 -17 -17 -17 -17 -17 -17 -17 -18 -18 -19 -18 -18 -18 -19 -20 -19 -20 -19
-4 -4 -5 -6 -7 -8 -8 -9 -9 -10 -10 -10 -11 -12 -12 -13 -14 -15 -17 -17 -17 -17 -16 -16 -16 -17 -17 -17 -18 -18 -18 -17 -18 -18 -18 -18 -18 -19 -19 -20 -20 -20 -19
-5 -6 -7 -7 -8 -9 -10 -10 -11 -11 -12 -12 -13 -14 -14 -15 -15 -15 -16 -17 -17 -17 -16 -17 -17 -17 -18 -18 -18 -18 -18 -18 -18 -18 -19 -19 -19 -19 -19 -19 -20 -19 -19
-7 -8 -8 -9 -9 -10 -11 -12 -12 -13 -14 -14 -15 -15 -16 -16 -16 -16 -17 -17 -17 -17 -17 -17 -18 -18 -18 -18 -18 -18 -18 -18 -18 -19 -19 -19 -19 -19 -19 -19 -20 -20 -19
-9 -9 -10 -10 -11 -12 -13 -13 -14 -15 -15 -16 -17 -17 -18 -18 -18 -18 -18 -18 -18 -18 -18 -18 -18 -19 -19 -19 -19 -19 -19 -19 -19 -19 -19 -19 -19 -19 -19 -19 -20 -19 -19
-11 -11 -11 -12 -13 -14 -15 -15 -16 -17 -18 -18 -19 -19 -20 -20 -21 -20 -21 -20 -19 -19 -19 -19 -19 -19 -19 -19 -19 -19 -19 -19 -19 -20 -20 -20 -20 -19 -19 -20 -19 -19 -19
-12 -12 -13 -14 -15 -16 -17 -17 -18 -19 -20 -21 -21 -21 -22 -21 -21 -21 -21 -20 -20 -20 -20 -19 -19 -19 -19 -19 -19 -20 -20 -20 -20 -20 -20 -20 -20 -20 -20 -20 -19 -19 -19
-14 -14 -15 -16 -17 -17 -18 -19 -20 -20 -21 -22 -23 -23 -23 -23 -22 -22 -22 -21 -21 -21 -20 -20 -20 -20 -20 -19 -20 -20 -20 -20 -20 -20 -20 -20 -20 -20 -20 -19 -19 -19 -19
-16 -16 -17 -17 -18 -19 -19 -19 -20 -21 -22 -23 -23 -23 -23 -23 -23 -23 -22 -22 -21 -21 -21 -20 -20 -20 -20 -20 -20 -20 -20 -20 -20 -20 -20 -20 -20 -20 -20 -20 -19 -19 -19
-18 -18 -18 -19 -19 -20 -20 -21 -21 -22 -22 -22 -23 -23 -23 -23 -23 -23 -22 -22 -22 -21 -21 -20 -20 -20 -20 -20 -20 -20 -20 -20 -20 -20 -20 -20 -20 -20 -20 -20 -20 -19 -19